1999-01-01 01:00:00,-2.36
1999-01-01 04:00:00,-2.77
1999-01-01 07:00:00,-3.75
1999-01-01 10:00:00,-3.76
1999-01-01 13:00:00,-2.92
1999-01-01 16:00:00,-2.44
1999-01-01 19:00:00,-4.22
1999-01-01 22:00:00,-5.34
1999-01-02 01:00:00,-5.87
1999-01-02 04:00:00,-6.56
1999-01-02 07:00:00,-7.57
1999-01-02 10:00:00,-7.23
1999-01-02 13:00:00,-9.21
1999-01-02 16:00:00,-10.35
1999-01-02 19:00:00,-10.10
1999-01-02 22:00:00,-10.77
1999-01-03 01:00:00,-10.82
1999-01-03 04:00:00,-10.00
1999-01-03 07:00:00,-7.26
1999-01-03 10:00:00,-5.32
1999-01-03 13:00:00,-5.85
1999-01-03 16:00:00,-4.82
1999-01-03 19:00:00,-5.36
1999-01-03 22:00:00,-6.28
1999-01-04 01:00:00,-8.02
1999-01-04 04:00:00,-8.85
1999-01-04 07:00:00,-8.48
1999-01-04 10:00:00,-3.75
1999-01-04 13:00:00,-5.60
1999-01-04 16:00:00,-8.66
1999-01-04 19:00:00,-9.38
1999-01-04 22:00:00,-7.58
1999-01-05 01:00:00,-10.44
1999-01-05 04:00:00,-11.54
1999-01-05 07:00:00,-12.50
1999-01-05 10:00:00,-11.59
1999-01-05 13:00:00,-9.28
1999-01-05 16:00:00,-8.13
1999-01-05 19:00:00,-6.72
1999-01-05 22:00:00,-7.72
1999-01-06 01:00:00,-7.52
1999-01-06 04:00:00,-8.00
1999-01-06 07:00:00,-10.12
1999-01-06 10:00:00,-10.45
1999-01-06 13:00:00,-10.99
1999-01-06 16:00:00,-10.74
1999-01-06 19:00:00,-10.82
1999-01-06 22:00:00,-11.34
1999-01-07 01:00:00,-10.28
1999-01-07 04:00:00,-5.58
1999-01-07 07:00:00,-8.71
1999-01-07 10:00:00,-7.39
1999-01-07 13:00:00,-7.62
1999-01-07 16:00:00,-7.65
1999-01-07 19:00:00,-7.65
1999-01-07 22:00:00,-6.96
1999-01-08 01:00:00,-6.64
1999-01-08 04:00:00,-6.73
1999-01-08 07:00:00,-6.38
1999-01-08 10:00:00,-6.21
1999-01-08 13:00:00,-6.48
1999-01-08 16:00:00,-7.83
1999-01-08 19:00:00,-9.28
1999-01-08 22:00:00,-11.23
1999-01-09 01:00:00,-12.38
1999-01-09 04:00:00,-10.21
1999-01-09 07:00:00,-11.60
1999-01-09 10:00:00,-9.51
1999-01-09 13:00:00,-10.90
1999-01-09 16:00:00,-9.48
1999-01-09 19:00:00,-9.48
1999-01-09 22:00:00,-11.79
1999-01-10 01:00:00,-14.67
1999-01-10 04:00:00,-15.93
1999-01-10 07:00:00,-17.12
1999-01-10 10:00:00,-15.50
1999-01-10 13:00:00,-15.57
1999-01-10 16:00:00,-16.19
1999-01-10 19:00:00,-16.74
1999-01-10 22:00:00,-13.40
1999-01-11 01:00:00,-11.54
1999-01-11 04:00:00,-7.37
1999-01-11 07:00:00,-8.69
1999-01-11 10:00:00,-11.63
1999-01-11 13:00:00,-8.45
1999-01-11 16:00:00,-9.49
1999-01-11 19:00:00,-10.60
1999-01-11 22:00:00,-10.65
1999-01-12 01:00:00,-12.72
1999-01-12 04:00:00,-12.60
1999-01-12 07:00:00,-14.16
1999-01-12 10:00:00,-16.57
1999-01-12 13:00:00,-13.88
1999-01-12 16:00:00,-17.12
1999-01-12 19:00:00,-16.44
1999-01-12 22:00:00,-13.23
1999-01-13 01:00:00,-15.48
1999-01-13 04:00:00,-16.89
1999-01-13 07:00:00,-17.71
1999-01-13 10:00:00,-16.06
1999-01-13 13:00:00,-15.61
1999-01-13 16:00:00,-16.10
1999-01-13 19:00:00,-16.63
1999-01-13 22:00:00,-20.30
1999-01-14 01:00:00,-22.05
1999-01-14 04:00:00,-19.05
1999-01-14 07:00:00,-20.91
1999-01-14 10:00:00,-23.01
1999-01-14 13:00:00,-22.43
1999-01-14 16:00:00,-22.90
1999-01-14 19:00:00,-23.90
1999-01-14 22:00:00,-27.39
1999-01-15 01:00:00,-25.64
1999-01-15 04:00:00,-27.26
1999-01-15 07:00:00,-28.25
1999-01-15 10:00:00,-26.29
1999-01-15 13:00:00,-24.33
1999-01-15 16:00:00,-21.14
1999-01-15 19:00:00,-17.55
1999-01-15 22:00:00,-18.55
1999-01-16 01:00:00,-22.36
1999-01-16 04:00:00,-14.20
1999-01-16 07:00:00,-15.24
1999-01-16 10:00:00,-14.45
1999-01-16 13:00:00,-12.41
1999-01-16 16:00:00,-10.00
1999-01-16 19:00:00,-9.25
1999-01-16 22:00:00,-8.42
1999-01-17 01:00:00,-7.10
1999-01-17 04:00:00,-7.64
1999-01-17 07:00:00,-5.07
1999-01-17 10:00:00,-4.34
1999-01-17 13:00:00,-4.63
1999-01-17 16:00:00,-4.59
1999-01-17 19:00:00,-4.65
1999-01-17 22:00:00,-4.36
1999-01-18 01:00:00,-6.49
1999-01-18 04:00:00,-6.90
1999-01-18 07:00:00,-7.66
1999-01-18 10:00:00,-7.23
1999-01-18 13:00:00,-6.83
1999-01-18 16:00:00,-4.28
1999-01-18 19:00:00,-3.87
1999-01-18 22:00:00,-3.89
1999-01-19 01:00:00,-4.51
1999-01-19 04:00:00,-4.66
1999-01-19 07:00:00,-5.29
1999-01-19 10:00:00,-6.04
1999-01-19 13:00:00,-7.63
1999-01-19 16:00:00,-8.20
1999-01-19 19:00:00,-9.72
1999-01-19 22:00:00,-9.39
1999-01-20 01:00:00,-13.44
1999-01-20 04:00:00,-8.53
1999-01-20 07:00:00,-7.56
1999-01-20 10:00:00,-10.08
1999-01-20 13:00:00,-6.00
1999-01-20 16:00:00,-7.73
1999-01-20 19:00:00,-1.35
1999-01-20 22:00:00,-3.09
1999-01-21 01:00:00,-3.13
1999-01-21 04:00:00,-2.11
1999-01-21 07:00:00,-3.47
1999-01-21 10:00:00,-4.93
1999-01-21 13:00:00,-5.36
1999-01-21 16:00:00,-4.90
1999-01-21 19:00:00,-4.54
1999-01-21 22:00:00,-4.24
1999-01-22 01:00:00,-4.96
1999-01-22 04:00:00,-3.99
1999-01-22 07:00:00,-3.95
1999-01-22 10:00:00,-7.72
1999-01-22 13:00:00,-8.53
1999-01-22 16:00:00,-6.46
1999-01-22 19:00:00,-6.79
1999-01-22 22:00:00,-12.93
1999-01-23 01:00:00,-13.01
1999-01-23 04:00:00,-13.20
1999-01-23 07:00:00,-14.62
1999-01-23 10:00:00,-12.71
1999-01-23 13:00:00,-13.99
1999-01-23 16:00:00,-13.11
1999-01-23 19:00:00,-12.99
1999-01-23 22:00:00,-15.18
1999-01-24 01:00:00,-14.98
1999-01-24 04:00:00,-14.54
1999-01-24 07:00:00,-15.54
1999-01-24 10:00:00,-16.13
1999-01-24 13:00:00,-17.69
1999-01-24 16:00:00,-16.83
1999-01-24 19:00:00,-15.81
1999-01-24 22:00:00,-16.70
1999-01-25 01:00:00,-15.59
1999-01-25 04:00:00,-17.06
1999-01-25 07:00:00,-17.47
1999-01-25 10:00:00,-18.69
1999-01-25 13:00:00,-18.93
1999-01-25 16:00:00,-18.83
1999-01-25 19:00:00,-18.70
1999-01-25 22:00:00,-18.53
1999-01-26 01:00:00,-18.26
1999-01-26 04:00:00,-18.29
1999-01-26 07:00:00,-20.76
1999-01-26 10:00:00,-20.98
1999-01-26 13:00:00,-21.75
1999-01-26 16:00:00,-20.91
1999-01-26 19:00:00,-22.79
1999-01-26 22:00:00,-22.44
1999-01-27 01:00:00,-22.46
1999-01-27 04:00:00,-23.86
1999-01-27 07:00:00,-25.13
1999-01-27 10:00:00,-21.37
1999-01-27 13:00:00,-18.50
1999-01-27 16:00:00,-16.02
1999-01-27 19:00:00,-13.67
1999-01-27 22:00:00,-15.93
1999-01-28 01:00:00,-11.33
1999-01-28 04:00:00,-11.35
1999-01-28 07:00:00,-11.60
1999-01-28 10:00:00,-13.07
1999-01-28 13:00:00,-13.76
1999-01-28 16:00:00,-12.30
1999-01-28 19:00:00,-12.68
1999-01-28 22:00:00,-12.20
1999-01-29 01:00:00,-8.21
1999-01-29 04:00:00,-7.87
1999-01-29 07:00:00,-8.04
1999-01-29 10:00:00,-7.23
1999-01-29 13:00:00,-6.86
1999-01-29 16:00:00,-6.47
1999-01-29 19:00:00,-7.19
1999-01-29 22:00:00,-6.84
1999-01-30 01:00:00,-7.10
1999-01-30 04:00:00,-7.00
1999-01-30 07:00:00,-7.01
1999-01-30 10:00:00,-6.79
1999-01-30 13:00:00,-8.11
1999-01-30 16:00:00,-3.20
1999-01-30 19:00:00,-2.41
1999-01-30 22:00:00,-3.38
1999-01-31 01:00:00,-3.71
1999-01-31 04:00:00,-3.90
1999-01-31 07:00:00,-3.43
1999-01-31 10:00:00,-4.17
1999-01-31 13:00:00,-5.04
1999-01-31 16:00:00,-4.39
1999-01-31 19:00:00,-4.18
1999-01-31 22:00:00,-3.91
1999-02-01 01:00:00,-4.72
1999-02-01 04:00:00,-4.91
1999-02-01 07:00:00,-8.32
1999-02-01 10:00:00,-8.38
1999-02-01 13:00:00,-7.91
1999-02-01 16:00:00,-10.38
1999-02-01 19:00:00,-10.38
1999-02-01 22:00:00,-10.32
1999-02-02 01:00:00,-11.77
1999-02-02 04:00:00,-12.47
1999-02-02 07:00:00,-7.18
1999-02-02 10:00:00,-0.46
1999-02-02 13:00:00,0.20
1999-02-02 16:00:00,-0.25
1999-02-02 19:00:00,-2.49
1999-02-02 22:00:00,-1.43
1999-02-03 01:00:00,-0.80
1999-02-03 04:00:00,-3.26
1999-02-03 07:00:00,-4.53
1999-02-03 10:00:00,-4.21
1999-02-03 13:00:00,-4.71
1999-02-03 16:00:00,-5.81
1999-02-03 19:00:00,-6.10
1999-02-03 22:00:00,-7.88
1999-02-04 01:00:00,-11.87
1999-02-04 04:00:00,-10.28
1999-02-04 07:00:00,-10.66
1999-02-04 10:00:00,-11.55
1999-02-04 13:00:00,-12.40
1999-02-04 16:00:00,-15.30
1999-02-04 19:00:00,-16.59
1999-02-04 22:00:00,-16.54
1999-02-05 01:00:00,-18.20
1999-02-05 04:00:00,-20.49
1999-02-05 07:00:00,-18.06
1999-02-05 10:00:00,-19.96
1999-02-05 13:00:00,-14.80
1999-02-05 16:00:00,-15.73
1999-02-05 19:00:00,-18.93
1999-02-05 22:00:00,-20.00
1999-02-06 01:00:00,-21.23
1999-02-06 04:00:00,-21.58
1999-02-06 07:00:00,-21.83
1999-02-06 10:00:00,-21.39
1999-02-06 13:00:00,-21.40
1999-02-06 16:00:00,-23.03
1999-02-06 19:00:00,-22.79
1999-02-06 22:00:00,-17.45
1999-02-07 01:00:00,-17.30
1999-02-07 04:00:00,-15.19
1999-02-07 07:00:00,-13.66
1999-02-07 10:00:00,-15.34
1999-02-07 13:00:00,-14.43
1999-02-07 16:00:00,-13.51
1999-02-07 19:00:00,-13.73
1999-02-07 22:00:00,-16.00
1999-02-08 01:00:00,-16.44
1999-02-08 04:00:00,-20.64
1999-02-08 07:00:00,-15.57
1999-02-08 10:00:00,-16.97
1999-02-08 13:00:00,-18.27
1999-02-08 16:00:00,-19.14
1999-02-08 19:00:00,-18.24
1999-02-08 22:00:00,-19.44
1999-02-09 01:00:00,-19.00
1999-02-09 04:00:00,-20.59
1999-02-09 07:00:00,-22.99
1999-02-09 10:00:00,-21.69
1999-02-09 13:00:00,-24.84
1999-02-09 16:00:00,-25.25
1999-02-09 19:00:00,-22.21
1999-02-09 22:00:00,-23.55
1999-02-10 01:00:00,-24.77
1999-02-10 04:00:00,-23.39
1999-02-10 07:00:00,-22.39
1999-02-10 10:00:00,-19.00
1999-02-10 13:00:00,-18.76
1999-02-10 16:00:00,-16.32
1999-02-10 19:00:00,-15.70
1999-02-10 22:00:00,-16.60
1999-02-11 01:00:00,-16.34
1999-02-11 04:00:00,-13.97
1999-02-11 07:00:00,-13.57
1999-02-11 10:00:00,-12.88
1999-02-11 13:00:00,-12.46
1999-02-11 16:00:00,-13.57
1999-02-11 19:00:00,-12.07
1999-02-11 22:00:00,-10.65
1999-02-12 01:00:00,-5.46
1999-02-12 04:00:00,-3.59
1999-02-12 07:00:00,-3.85
1999-02-12 10:00:00,-3.29
1999-02-12 13:00:00,-3.30
1999-02-12 16:00:00,-3.82
1999-02-12 19:00:00,-2.38
1999-02-12 22:00:00,-0.85
1999-02-13 01:00:00,-0.79
1999-02-13 04:00:00,-1.56
1999-02-13 07:00:00,-2.46
1999-02-13 10:00:00,-2.06
1999-02-13 13:00:00,-1.52
1999-02-13 16:00:00,-1.77
1999-02-13 19:00:00,-1.02
1999-02-13 22:00:00,-0.61
1999-02-14 01:00:00,-0.15
1999-02-14 04:00:00,0.15
1999-02-14 07:00:00,-0.36
1999-02-14 10:00:00,-1.52
1999-02-14 13:00:00,-1.46
1999-02-14 16:00:00,-2.02
1999-02-14 19:00:00,-2.95
1999-02-14 22:00:00,-4.85
1999-02-15 01:00:00,-5.52
1999-02-15 04:00:00,-6.99
1999-02-15 07:00:00,-7.64
1999-02-15 10:00:00,-8.15
1999-02-15 13:00:00,-9.88
1999-02-15 16:00:00,-9.72
1999-02-15 19:00:00,-8.57
1999-02-15 22:00:00,-7.69
1999-02-16 01:00:00,-7.46
1999-02-16 04:00:00,-11.09
1999-02-16 07:00:00,-9.03
1999-02-16 10:00:00,-7.70
1999-02-16 13:00:00,-6.91
1999-02-16 16:00:00,-6.47
1999-02-16 19:00:00,-7.15
1999-02-16 22:00:00,-8.84
1999-02-17 01:00:00,-8.07
1999-02-17 04:00:00,-11.23
1999-02-17 07:00:00,-11.79
1999-02-17 10:00:00,-7.80
1999-02-17 13:00:00,-8.69
1999-02-17 16:00:00,-10.38
1999-02-17 19:00:00,-11.55
1999-02-17 22:00:00,-11.36
1999-02-18 01:00:00,-13.43
1999-02-18 04:00:00,-12.41
1999-02-18 07:00:00,-15.15
1999-02-18 10:00:00,-13.89
1999-02-18 13:00:00,-13.19
1999-02-18 16:00:00,-17.17
1999-02-18 19:00:00,-16.23
1999-02-18 22:00:00,-13.89
1999-02-19 01:00:00,-17.09
1999-02-19 04:00:00,-14.51
1999-02-19 07:00:00,-17.87
1999-02-19 10:00:00,-15.90
1999-02-19 13:00:00,-15.25
1999-02-19 16:00:00,-16.63
1999-02-19 19:00:00,-18.20
1999-02-19 22:00:00,-17.00
1999-02-20 01:00:00,-14.50
1999-02-20 04:00:00,-13.79
1999-02-20 07:00:00,-14.91
1999-02-20 10:00:00,-13.52
1999-02-20 13:00:00,-13.18
1999-02-20 16:00:00,-12.58
1999-02-20 19:00:00,-12.81
1999-02-20 22:00:00,-13.94
1999-02-21 01:00:00,-14.63
1999-02-21 04:00:00,-14.54
1999-02-21 07:00:00,-13.65
1999-02-21 10:00:00,-12.46
1999-02-21 13:00:00,-13.87
1999-02-21 16:00:00,-13.74
1999-02-21 19:00:00,-13.22
1999-02-21 22:00:00,-13.31
1999-02-22 01:00:00,-12.52
1999-02-22 04:00:00,-12.54
1999-02-22 07:00:00,-12.79
1999-02-22 10:00:00,-13.86
1999-02-22 13:00:00,-14.46
1999-02-22 16:00:00,-14.45
1999-02-22 19:00:00,-14.88
1999-02-22 22:00:00,-12.19
1999-02-23 01:00:00,-7.29
1999-02-23 04:00:00,-7.50
1999-02-23 07:00:00,-7.41
1999-02-23 10:00:00,-7.33
1999-02-23 13:00:00,-6.78
1999-02-23 16:00:00,-9.35
1999-02-23 19:00:00,-10.35
1999-02-23 22:00:00,-11.64
1999-02-24 01:00:00,-12.04
1999-02-24 04:00:00,-12.64
1999-02-24 07:00:00,-15.95
1999-02-24 10:00:00,-12.14
1999-02-24 13:00:00,-11.61
1999-02-24 16:00:00,-13.55
1999-02-24 19:00:00,-11.73
1999-02-24 22:00:00,-15.59
1999-02-25 01:00:00,-13.05
1999-02-25 04:00:00,-12.95
1999-02-25 07:00:00,-13.19
1999-02-25 10:00:00,-10.89
1999-02-25 13:00:00,-7.20
1999-02-25 16:00:00,-12.23
1999-02-25 19:00:00,-14.07
1999-02-25 22:00:00,-14.79
1999-02-26 01:00:00,-15.45
1999-02-26 04:00:00,-15.11
1999-02-26 07:00:00,-14.35
1999-02-26 10:00:00,-13.48
1999-02-26 13:00:00,-15.72
1999-02-26 16:00:00,-14.28
1999-02-26 19:00:00,-13.37
1999-02-26 22:00:00,-12.54
1999-02-27 01:00:00,-13.30
1999-02-27 04:00:00,-14.62
1999-02-27 07:00:00,-14.47
1999-02-27 10:00:00,-10.44
1999-02-27 13:00:00,-11.98
1999-02-27 16:00:00,-13.19
1999-02-27 19:00:00,-14.23
1999-02-27 22:00:00,-14.33
1999-02-28 01:00:00,-17.30
1999-02-28 04:00:00,-13.25
1999-02-28 07:00:00,-12.47
1999-02-28 10:00:00,-13.04
1999-02-28 13:00:00,-11.70
1999-02-28 16:00:00,-13.45
1999-02-28 19:00:00,-13.95
1999-02-28 22:00:00,-14.35
1999-03-01 01:00:00,-16.78
1999-03-01 04:00:00,-14.84
1999-03-01 07:00:00,-15.90
1999-03-01 10:00:00,-14.41
1999-03-01 13:00:00,-13.41
1999-03-01 16:00:00,-12.18
1999-03-01 19:00:00,-12.29
1999-03-01 22:00:00,-12.70
1999-03-02 01:00:00,-11.98
1999-03-02 04:00:00,-12.48
1999-03-02 07:00:00,-13.13
1999-03-02 10:00:00,-14.70
1999-03-02 13:00:00,-10.31
1999-03-02 16:00:00,-19.18
1999-03-02 19:00:00,-18.14
1999-03-02 22:00:00,-22.81
1999-03-03 01:00:00,-18.16
1999-03-03 04:00:00,-18.77
1999-03-03 07:00:00,-15.95
1999-03-03 10:00:00,-13.57
1999-03-03 13:00:00,-12.69
1999-03-03 16:00:00,-17.94
1999-03-03 19:00:00,-17.39
1999-03-03 22:00:00,-16.27
1999-03-04 01:00:00,-16.58
1999-03-04 04:00:00,-18.93
1999-03-04 07:00:00,-15.79
1999-03-04 10:00:00,-16.22
1999-03-04 13:00:00,-16.78
1999-03-04 16:00:00,-22.07
1999-03-04 19:00:00,-16.41
1999-03-04 22:00:00,-17.05
1999-03-05 01:00:00,-20.98
1999-03-05 04:00:00,-18.02
1999-03-05 07:00:00,-14.02
1999-03-05 10:00:00,-11.33
1999-03-05 13:00:00,-10.65
1999-03-05 16:00:00,-12.22
1999-03-05 19:00:00,-9.60
1999-03-05 22:00:00,-13.36
1999-03-06 01:00:00,-9.95
1999-03-06 04:00:00,-8.91
1999-03-06 07:00:00,-8.41
1999-03-06 10:00:00,-7.98
1999-03-06 13:00:00,-9.39
1999-03-06 16:00:00,-11.58
1999-03-06 19:00:00,-10.79
1999-03-06 22:00:00,-11.43
1999-03-07 01:00:00,-10.55
1999-03-07 04:00:00,-9.30
1999-03-07 07:00:00,-8.78
1999-03-07 10:00:00,-4.50
1999-03-07 13:00:00,-4.37
1999-03-07 16:00:00,-5.94
1999-03-07 19:00:00,-6.33
1999-03-07 22:00:00,-9.64
1999-03-08 01:00:00,-7.90
1999-03-08 04:00:00,-7.33
1999-03-08 07:00:00,-8.74
1999-03-08 10:00:00,-3.61
1999-03-08 13:00:00,-6.62
1999-03-08 16:00:00,-9.17
1999-03-08 19:00:00,-9.83
1999-03-08 22:00:00,-14.45
1999-03-09 01:00:00,-14.25
1999-03-09 04:00:00,-9.60
1999-03-09 07:00:00,-8.80
1999-03-09 10:00:00,-7.85
1999-03-09 13:00:00,-8.89
1999-03-09 16:00:00,-9.16
1999-03-09 19:00:00,-12.50
1999-03-09 22:00:00,-13.73
1999-03-10 01:00:00,-10.34
1999-03-10 04:00:00,-13.74
1999-03-10 07:00:00,-12.57
1999-03-10 10:00:00,-12.49
1999-03-10 13:00:00,-12.14
1999-03-10 16:00:00,-12.20
1999-03-10 19:00:00,-12.49
1999-03-10 22:00:00,-13.28
1999-03-11 01:00:00,-14.21
1999-03-11 04:00:00,-12.88
1999-03-11 07:00:00,-14.34
1999-03-11 10:00:00,-11.44
1999-03-11 13:00:00,-12.68
1999-03-11 16:00:00,-12.90
1999-03-11 19:00:00,-15.85
1999-03-11 22:00:00,-14.83
1999-03-12 01:00:00,-14.74
1999-03-12 04:00:00,-13.28
1999-03-12 07:00:00,-15.97
1999-03-12 10:00:00,-14.95
1999-03-12 13:00:00,-14.03
1999-03-12 16:00:00,-14.94
1999-03-12 19:00:00,-14.71
1999-03-12 22:00:00,-13.70
1999-03-13 01:00:00,-12.57
1999-03-13 04:00:00,-10.45
1999-03-13 07:00:00,-14.03
1999-03-13 10:00:00,-10.49
1999-03-13 13:00:00,-7.92
1999-03-13 16:00:00,-8.97
1999-03-13 19:00:00,-9.90
1999-03-13 22:00:00,-8.61
1999-03-14 01:00:00,-4.35
1999-03-14 04:00:00,-0.20
1999-03-14 07:00:00,-2.17
1999-03-14 10:00:00,-2.33
1999-03-14 13:00:00,-3.38
1999-03-14 16:00:00,-3.97
1999-03-14 19:00:00,-7.84
1999-03-14 22:00:00,-10.68
1999-03-15 01:00:00,-7.46
1999-03-15 04:00:00,-6.02
1999-03-15 07:00:00,-6.88
1999-03-15 10:00:00,-6.75
1999-03-15 13:00:00,-2.45
1999-03-15 16:00:00,-4.22
1999-03-15 19:00:00,-9.75
1999-03-15 22:00:00,-10.40
1999-03-16 01:00:00,-10.37
1999-03-16 04:00:00,-7.58
1999-03-16 07:00:00,-2.09
1999-03-16 10:00:00,-2.58
1999-03-16 13:00:00,-2.91
1999-03-16 16:00:00,-4.01
1999-03-16 19:00:00,-4.97
1999-03-16 22:00:00,-4.76
1999-03-17 01:00:00,-5.71
1999-03-17 04:00:00,-6.32
1999-03-17 07:00:00,-6.57
1999-03-17 10:00:00,-5.94
1999-03-17 13:00:00,-6.00
1999-03-17 16:00:00,-6.67
1999-03-17 19:00:00,-7.29
1999-03-17 22:00:00,-11.34
1999-03-18 01:00:00,-10.96
1999-03-18 04:00:00,-13.19
1999-03-18 07:00:00,-11.31
1999-03-18 10:00:00,-8.85
1999-03-18 13:00:00,-2.35
1999-03-18 16:00:00,-5.63
1999-03-18 19:00:00,-9.28
1999-03-18 22:00:00,-6.86
1999-03-19 01:00:00,-4.70
1999-03-19 04:00:00,-5.65
1999-03-19 07:00:00,-7.10
1999-03-19 10:00:00,-6.17
1999-03-19 13:00:00,-6.44
1999-03-19 16:00:00,-6.30
1999-03-19 19:00:00,-6.85
1999-03-19 22:00:00,-6.58
1999-03-20 01:00:00,-6.95
1999-03-20 04:00:00,-7.53
1999-03-20 07:00:00,-8.27
1999-03-20 10:00:00,-5.88
1999-03-20 13:00:00,-6.50
1999-03-20 16:00:00,-8.23
1999-03-20 19:00:00,-7.44
1999-03-20 22:00:00,-5.87
1999-03-21 01:00:00,-7.63
1999-03-21 04:00:00,-9.61
1999-03-21 07:00:00,-9.25
1999-03-21 10:00:00,-10.92
1999-03-21 13:00:00,-8.22
1999-03-21 16:00:00,-8.97
1999-03-21 19:00:00,-9.89
1999-03-21 22:00:00,-11.42
1999-03-22 01:00:00,-11.16
1999-03-22 04:00:00,-11.34
1999-03-22 07:00:00,-12.32
1999-03-22 10:00:00,-12.27
1999-03-22 13:00:00,-10.07
1999-03-22 16:00:00,-12.53
1999-03-22 19:00:00,-14.74
1999-03-22 22:00:00,-14.04
1999-03-23 01:00:00,-16.50
1999-03-23 04:00:00,-13.06
1999-03-23 07:00:00,-14.22
1999-03-23 10:00:00,-13.36
1999-03-23 13:00:00,-12.09
1999-03-23 16:00:00,-13.85
1999-03-23 19:00:00,-14.94
1999-03-23 22:00:00,-16.01
1999-03-24 01:00:00,-14.70
1999-03-24 04:00:00,-14.81
1999-03-24 07:00:00,-10.94
1999-03-24 10:00:00,-8.30
1999-03-24 13:00:00,-7.67
1999-03-24 16:00:00,-6.80
1999-03-24 19:00:00,-6.90
1999-03-24 22:00:00,-7.07
1999-03-25 01:00:00,-7.41
1999-03-25 04:00:00,-7.64
1999-03-25 07:00:00,-8.24
1999-03-25 10:00:00,-7.55
1999-03-25 13:00:00,-7.21
1999-03-25 16:00:00,-8.31
1999-03-25 19:00:00,-7.83
1999-03-25 22:00:00,-8.97
1999-03-26 01:00:00,-9.23
1999-03-26 04:00:00,-9.13
1999-03-26 07:00:00,-9.40
1999-03-26 10:00:00,-7.64
1999-03-26 13:00:00,-6.50
1999-03-26 16:00:00,-10.63
1999-03-26 19:00:00,-14.47
1999-03-26 22:00:00,-13.31
1999-03-27 01:00:00,-14.69
1999-03-27 04:00:00,-10.83
1999-03-27 07:00:00,-9.11
1999-03-27 10:00:00,-7.60
1999-03-27 13:00:00,-6.48
1999-03-27 16:00:00,-10.44
1999-03-27 19:00:00,-10.46
1999-03-27 22:00:00,-9.88
1999-03-28 01:00:00,-9.67
1999-03-28 04:00:00,-10.34
1999-03-28 07:00:00,-7.61
1999-03-28 10:00:00,-4.20
1999-03-28 13:00:00,-4.70
1999-03-28 16:00:00,-4.76
1999-03-28 19:00:00,-5.89
1999-03-28 22:00:00,-6.42
1999-03-29 01:00:00,-5.60
1999-03-29 04:00:00,-5.93
1999-03-29 07:00:00,-6.21
1999-03-29 10:00:00,-6.43
1999-03-29 13:00:00,-5.89
1999-03-29 16:00:00,-8.18
1999-03-29 19:00:00,-8.83
1999-03-29 22:00:00,-6.07
1999-03-30 01:00:00,-6.70
1999-03-30 04:00:00,-8.04
1999-03-30 07:00:00,-5.13
1999-03-30 10:00:00,0.91
1999-03-30 13:00:00,1.21
1999-03-30 16:00:00,1.40
1999-03-30 19:00:00,-1.17
1999-03-30 22:00:00,-3.19
1999-03-31 01:00:00,0.41
1999-03-31 04:00:00,0.44
1999-03-31 07:00:00,-0.73
1999-03-31 10:00:00,-2.72
1999-03-31 13:00:00,-2.67
1999-03-31 16:00:00,-4.13
1999-03-31 19:00:00,-1.18
1999-03-31 22:00:00,-1.35
1999-04-01 01:00:00,-1.81
1999-04-01 04:00:00,-1.97
1999-04-01 07:00:00,-1.94
1999-04-01 10:00:00,-1.92
1999-04-01 13:00:00,-3.25
1999-04-01 16:00:00,-4.84
1999-04-01 19:00:00,-3.15
1999-04-01 22:00:00,-2.58
1999-04-02 01:00:00,-3.36
1999-04-02 04:00:00,-4.59
1999-04-02 07:00:00,-5.22
1999-04-02 10:00:00,-4.77
1999-04-02 13:00:00,-5.34
1999-04-02 16:00:00,-5.35
1999-04-02 19:00:00,-5.55
1999-04-02 22:00:00,-4.68
1999-04-03 01:00:00,-3.99
1999-04-03 04:00:00,-4.45
1999-04-03 07:00:00,-8.36
1999-04-03 10:00:00,-9.29
1999-04-03 13:00:00,-9.49
1999-04-03 16:00:00,-10.69
1999-04-03 19:00:00,-10.93
1999-04-03 22:00:00,-11.15
1999-04-04 01:00:00,-10.99
1999-04-04 04:00:00,-9.91
1999-04-04 07:00:00,-9.87
1999-04-04 10:00:00,-9.12
1999-04-04 13:00:00,-7.68
1999-04-04 16:00:00,-7.58
1999-04-04 19:00:00,-8.01
1999-04-04 22:00:00,-7.73
1999-04-05 01:00:00,-6.46
1999-04-05 04:00:00,-5.79
1999-04-05 07:00:00,-4.43
1999-04-05 10:00:00,-3.43
1999-04-05 13:00:00,-2.90
1999-04-05 16:00:00,-4.56
1999-04-05 19:00:00,-6.25
1999-04-05 22:00:00,-8.09
1999-04-06 01:00:00,-5.44
1999-04-06 04:00:00,-3.11
1999-04-06 07:00:00,-2.61
1999-04-06 10:00:00,-2.15
1999-04-06 13:00:00,0.35
1999-04-06 16:00:00,0.88
1999-04-06 19:00:00,-0.02
1999-04-06 22:00:00,-0.34
1999-04-07 01:00:00,0.38
1999-04-07 04:00:00,-1.30
1999-04-07 07:00:00,0.41
1999-04-07 10:00:00,-0.61
1999-04-07 13:00:00,-2.85
1999-04-07 16:00:00,-5.42
1999-04-07 19:00:00,-6.96
1999-04-07 22:00:00,-8.31
1999-04-08 01:00:00,-8.59
1999-04-08 04:00:00,-8.94
1999-04-08 07:00:00,-7.60
1999-04-08 10:00:00,-7.06
1999-04-08 13:00:00,-6.52
1999-04-08 16:00:00,-7.52
1999-04-08 19:00:00,-6.75
1999-04-08 22:00:00,-9.34
1999-04-09 01:00:00,-9.65
1999-04-09 04:00:00,-9.05
1999-04-09 07:00:00,-2.09
1999-04-09 10:00:00,-1.84
1999-04-09 13:00:00,-2.50
1999-04-09 16:00:00,-3.55
1999-04-09 19:00:00,-3.16
1999-04-09 22:00:00,-4.46
1999-04-10 01:00:00,-3.84
1999-04-10 04:00:00,-5.04
1999-04-10 07:00:00,-9.36
1999-04-10 10:00:00,-10.23
1999-04-10 13:00:00,-4.67
1999-04-10 16:00:00,-11.38
1999-04-10 19:00:00,-12.98
1999-04-10 22:00:00,-12.34
1999-04-11 01:00:00,-10.51
1999-04-11 04:00:00,-12.26
1999-04-11 07:00:00,-12.32
1999-04-11 10:00:00,-7.81
1999-04-11 13:00:00,-7.56
1999-04-11 16:00:00,-11.76
1999-04-11 19:00:00,-13.29
1999-04-11 22:00:00,-14.39
1999-04-12 01:00:00,-12.74
1999-04-12 04:00:00,-12.48
1999-04-12 07:00:00,-12.48
1999-04-12 10:00:00,-8.40
1999-04-12 13:00:00,-7.97
1999-04-12 16:00:00,-11.30
1999-04-12 19:00:00,-13.78
1999-04-12 22:00:00,-14.88
1999-04-13 01:00:00,-11.67
1999-04-13 04:00:00,-11.11
1999-04-13 07:00:00,-10.95
1999-04-13 10:00:00,-8.00
1999-04-13 13:00:00,-8.76
1999-04-13 16:00:00,-8.27
1999-04-13 19:00:00,-9.15
1999-04-13 22:00:00,-9.55
1999-04-14 01:00:00,-10.00
1999-04-14 04:00:00,-10.47
1999-04-14 07:00:00,-8.33
1999-04-14 10:00:00,-7.76
1999-04-14 13:00:00,-6.60
1999-04-14 16:00:00,-7.41
1999-04-14 19:00:00,-8.64
1999-04-14 22:00:00,-7.06
1999-04-15 01:00:00,-6.45
1999-04-15 04:00:00,-6.35
1999-04-15 07:00:00,-6.62
1999-04-15 10:00:00,-4.93
1999-04-15 13:00:00,-3.97
1999-04-15 16:00:00,-6.23
1999-04-15 19:00:00,-5.89
1999-04-15 22:00:00,-4.90
1999-04-16 01:00:00,-4.74
1999-04-16 04:00:00,-4.31
1999-04-16 07:00:00,-4.54
1999-04-16 10:00:00,-4.23
1999-04-16 13:00:00,-4.09
1999-04-16 16:00:00,-3.60
1999-04-16 19:00:00,-4.28
1999-04-16 22:00:00,-2.81
1999-04-17 01:00:00,-4.54
1999-04-17 04:00:00,-4.85
1999-04-17 07:00:00,-4.24
1999-04-17 10:00:00,-2.06
1999-04-17 13:00:00,-1.32
1999-04-17 16:00:00,-2.77
1999-04-17 19:00:00,-6.87
1999-04-17 22:00:00,-8.09
1999-04-18 01:00:00,-5.23
1999-04-18 04:00:00,-4.25
1999-04-18 07:00:00,-3.43
1999-04-18 10:00:00,-2.56
1999-04-18 13:00:00,-3.27
1999-04-18 16:00:00,-3.07
1999-04-18 19:00:00,-3.37
1999-04-18 22:00:00,-3.39
1999-04-19 01:00:00,-2.66
1999-04-19 04:00:00,-0.49
1999-04-19 07:00:00,-0.91
1999-04-19 10:00:00,-1.85
1999-04-19 13:00:00,-2.96
1999-04-19 16:00:00,-3.56
1999-04-19 19:00:00,-3.45
1999-04-19 22:00:00,-4.73
1999-04-20 01:00:00,-3.79
1999-04-20 04:00:00,-2.96
1999-04-20 07:00:00,-0.93
1999-04-20 10:00:00,-1.24
1999-04-20 13:00:00,0.19
1999-04-20 16:00:00,-1.31
1999-04-20 19:00:00,-2.12
1999-04-20 22:00:00,-1.46
1999-04-21 01:00:00,-3.47
1999-04-21 04:00:00,-1.46
1999-04-21 07:00:00,-0.09
1999-04-21 10:00:00,-0.93
1999-04-21 13:00:00,-0.86
1999-04-21 16:00:00,-1.20
1999-04-21 19:00:00,-1.59
1999-04-21 22:00:00,-4.64
1999-04-22 01:00:00,-5.16
1999-04-22 04:00:00,-3.37
1999-04-22 07:00:00,-1.29
1999-04-22 10:00:00,-2.18
1999-04-22 13:00:00,-0.53
1999-04-22 16:00:00,-1.17
1999-04-22 19:00:00,-1.53
1999-04-22 22:00:00,-2.37
1999-04-23 01:00:00,-1.40
1999-04-23 04:00:00,-2.19
1999-04-23 07:00:00,-0.64
1999-04-23 10:00:00,2.81
1999-04-23 13:00:00,5.60
1999-04-23 16:00:00,0.56
1999-04-23 19:00:00,-1.61
1999-04-23 22:00:00,-3.44
1999-04-24 01:00:00,-5.18
1999-04-24 04:00:00,-6.36
1999-04-24 07:00:00,-2.02